Location: Im Fang
(46.6019°N, 7.2397°E)
Time: 03:27:23
(UTC+00:00)

Envisat - Pass Details

Date: 09 March 2021
Orbit: 764 x 766 km, 98.1° (Epoch: 18 April)

Event Time Altitude Azimuth Distance (km) Brightness Sun altitude
Rises 04:35:04 0° 20° (NNE) 3,244 6.7 -14.6°
Reaches altitude 10° 04:37:33 10° 29° (NNE) 2,313 6.0 -14.2°
Maximum altitude 04:42:16 37° 96° (E) 1,182 4.7 -13.4°
Drops below altitude 10° 04:46:56 10° 164° (SSE) 2,295 5.6 -12.6°
Sets 04:49:23 0° 172° (S) 3,216 6.3 -12.2°
